Time,TemperatureF,DewpointF,PressureIn,WindDirection,WindDirectionDegrees,WindSpeedMPH,WindSpeedGustMPH,Humidity,HourlyPrecipIn,Conditions,Clouds,dailyrainin,SoftwareType,DateUTC
2013-01-31 00:10:00,55.4,52.2,29.62,NW,312,7.0,7.0,89,0.00,-RA,,0.00,WeatherDisplay:10.37,2013-01-31 05:10:00,
2013-01-31 00:20:00,54.7,51.5,29.63,WNW,301,2.0,9.0,89,0.00,-RA,,0.00,WeatherDisplay:10.37,2013-01-31 05:20:00,
2013-01-31 00:30:00,54.0,50.9,29.62,West,274,5.0,6.0,89,0.00,-RA,,0.00,WeatherDisplay:10.37,2013-01-31 05:30:00,
2013-01-31 00:40:00,53.6,50.4,29.63,West,276,6.0,12.0,89,0.01,-RA,,0.01,WeatherDisplay:10.37,2013-01-31 05:40:00,
2013-01-31 00:50:00,53.1,49.9,29.63,West,265,3.0,12.0,89,0.00,-RA,,0.01,WeatherDisplay:10.37,2013-01-31 05:50:00,
2013-01-31 01:00:00,52.7,49.5,29.63,NW,308,2.0,8.0,89,0.00,-RA,,0.01,WeatherDisplay:10.37,2013-01-31 06:00:00,
2013-01-31 01:10:00,52.2,49.0,29.64,West,275,5.0,6.0,89,0.00,-RA,,0.01,WeatherDisplay:10.37,2013-01-31 06:10:00,
2013-01-31 01:20:00,52.0,48.5,29.64,NNW,347,8.0,8.0,88,0.00,-RA,,0.01,WeatherDisplay:10.37,2013-01-31 06:20:00,
2013-01-31 01:30:00,51.3,47.8,29.64,NW,305,7.0,12.0,88,0.00,-RA,,0.01,WeatherDisplay:10.37,2013-01-31 06:30:00,
2013-01-31 01:40:00,50.7,46.7,29.63,NW,305,6.0,9.0,86,0.00,-RA,,0.01,WeatherDisplay:10.37,2013-01-31 06:40:00,
2013-01-31 01:50:00,50.0,46.0,29.64,WNW,283,8.0,10.0,86,0.00,-RA,,0.01,WeatherDisplay:10.37,2013-01-31 06:50:00,
2013-01-31 02:00:00,49.6,45.3,29.65,NW,310,6.0,10.0,85,0.00,-RA,,0.01,WeatherDisplay:10.37,2013-01-31 07:00:00,
2013-01-31 02:10:00,49.3,45.0,29.64,WNW,292,7.0,9.0,85,0.00,OVC,,0.01,WeatherDisplay:10.37,2013-01-31 07:10:00,
2013-01-31 02:20:00,48.9,44.6,29.65,WNW,300,3.0,9.0,85,0.00,OVC,,0.01,WeatherDisplay:10.37,2013-01-31 07:20:00,
2013-01-31 02:30:00,48.6,44.3,29.66,NW,323,6.0,8.0,85,0.00,OVC,,0.01,WeatherDisplay:10.37,2013-01-31 07:30:00,
2013-01-31 02:40:00,48.6,44.3,29.66,NW,325,7.0,10.0,85,0.00,OVC,,0.01,WeatherDisplay:10.37,2013-01-31 07:40:00,
2013-01-31 02:50:00,48.6,44.3,29.67,NNW,343,3.0,6.0,85,0.00,OVC,,0.01,WeatherDisplay:10.37,2013-01-31 07:50:00,
2013-01-31 03:00:00,48.6,44.3,29.67,WNW,286,6.0,7.0,85,0.00,OVC,,0.01,WeatherDisplay:10.37,2013-01-31 08:00:00,
2013-01-31 03:10:00,48.4,44.1,29.68,NW,321,2.0,8.0,85,0.00,-RA,,0.01,WeatherDisplay:10.37,2013-01-31 08:10:00,
2013-01-31 03:20:00,48.4,44.1,29.68,NNW,347,8.0,10.0,85,0.00,-RA,,0.01,WeatherDisplay:10.37,2013-01-31 08:20:00,
2013-01-31 03:30:00,48.2,43.9,29.69,NNW,342,3.0,10.0,85,0.00,-RA,,0.01,WeatherDisplay:10.37,2013-01-31 08:30:00,
2013-01-31 03:40:00,48.0,43.7,29.70,North,349,5.0,9.0,85,0.00,-RA,,0.01,WeatherDisplay:10.37,2013-01-31 08:40:00,
2013-01-31 03:50:00,47.8,43.5,29.72,North,3,5.0,12.0,85,0.00,-RA,,0.01,WeatherDisplay:10.37,2013-01-31 08:50:00,
2013-01-31 04:00:00,47.5,43.2,29.72,NNE,15,2.0,6.0,85,0.00,-RA,,0.01,WeatherDisplay:10.37,2013-01-31 09:00:00,
2013-01-31 04:10:00,47.1,42.8,29.72,North,354,3.0,6.0,85,0.00,BKN,,0.01,WeatherDisplay:10.37,2013-01-31 09:10:00,
2013-01-31 04:20:00,46.7,41.8,29.73,North,356,6.0,6.0,83,0.00,BKN,,0.01,WeatherDisplay:10.37,2013-01-31 09:20:00,
2013-01-31 04:30:00,46.4,40.2,29.74,NNW,340,6.0,10.0,79,0.00,BKN,,0.01,WeatherDisplay:10.37,2013-01-31 09:30:00,
2013-01-31 04:40:00,46.0,38.2,29.75,North,349,8.0,9.0,74,0.00,BKN,,0.01,WeatherDisplay:10.37,2013-01-31 09:40:00,
2013-01-31 04:50:00,45.7,37.2,29.76,North,0,5.0,10.0,72,0.00,BKN,,0.01,WeatherDisplay:10.37,2013-01-31 09:50:00,
2013-01-31 05:00:00,45.2,36.7,29.77,NNE,21,6.0,9.0,72,0.00,BKN,,0.01,WeatherDisplay:10.37,2013-01-31 10:00:00,
2013-01-31 05:10:00,44.7,36.9,29.78,NNW,348,2.0,10.0,74,0.00,FEW,,0.01,WeatherDisplay:10.37,2013-01-31 10:10:00,
2013-01-31 05:20:00,44.2,36.5,29.78,NNE,18,7.0,9.0,74,0.00,FEW,,0.01,WeatherDisplay:10.37,2013-01-31 10:20:00,
2013-01-31 05:30:00,43.9,35.4,29.79,North,356,8.0,15.0,72,0.00,FEW,,0.01,WeatherDisplay:10.37,2013-01-31 10:30:00,
2013-01-31 05:40:00,43.5,33.7,29.80,North,0,10.0,13.0,68,0.00,FEW,,0.01,WeatherDisplay:10.37,2013-01-31 10:40:00,
2013-01-31 05:50:00,43.0,32.4,29.80,North,7,5.0,13.0,66,0.00,FEW,,0.01,WeatherDisplay:10.37,2013-01-31 10:50:00,
2013-01-31 06:00:00,42.4,31.1,29.81,North,5,9.0,10.0,64,0.00,FEW,,0.01,WeatherDisplay:10.37,2013-01-31 11:00:00,
2013-01-31 06:10:00,42.1,30.8,29.82,NNE,13,5.0,13.0,64,0.00,FEW,,0.01,WeatherDisplay:10.37,2013-01-31 11:10:00,
2013-01-31 06:20:00,41.6,30.7,29.84,NNE,13,9.0,12.0,65,0.00,FEW,,0.01,WeatherDisplay:10.37,2013-01-31 11:20:00,
2013-01-31 06:30:00,41.0,29.4,29.85,North,5,9.0,13.0,63,0.00,FEW,,0.01,WeatherDisplay:10.37,2013-01-31 11:30:00,
2013-01-31 06:40:00,40.6,28.6,29.86,NNW,342,10.0,15.0,62,0.00,FEW,,0.01,WeatherDisplay:10.37,2013-01-31 11:40:00,
2013-01-31 06:50:00,40.2,28.2,29.87,North,351,7.0,10.0,62,0.00,FEW,,0.01,WeatherDisplay:10.37,2013-01-31 11:50:00,
2013-01-31 07:00:00,39.7,28.2,29.88,North,7,5.0,10.0,63,0.00,FEW,,0.01,WeatherDisplay:10.37,2013-01-31 12:00:00,
2013-01-31 07:10:00,39.2,27.7,29.88,WNW,298,5.0,7.0,63,0.00,FEW,,0.01,WeatherDisplay:10.37,2013-01-31 12:10:00,
2013-01-31 07:20:00,38.8,27.3,29.89,WNW,289,7.0,7.0,63,0.00,FEW,,0.01,WeatherDisplay:10.37,2013-01-31 12:20:00,
2013-01-31 07:30:00,38.5,27.0,29.90,WNW,292,3.0,7.0,63,0.00,FEW,,0.01,WeatherDisplay:10.37,2013-01-31 12:30:00,
2013-01-31 07:40:00,38.3,27.2,29.90,WNW,291,8.0,9.0,64,0.00,FEW,,0.01,WeatherDisplay:10.37,2013-01-31 12:40:00,
2013-01-31 07:50:00,38.5,27.4,29.92,NW,305,5.0,9.0,64,0.00,FEW,,0.01,WeatherDisplay:10.37,2013-01-31 12:50:00,
2013-01-31 08:00:00,38.6,27.1,29.93,West,280,5.0,12.0,63,0.00,FEW,,0.01,WeatherDisplay:10.37,2013-01-31 13:00:00,
2013-01-31 08:10:00,38.8,27.3,29.93,NNW,327,6.0,10.0,63,0.00,SCT,,0.01,WeatherDisplay:10.37,2013-01-31 13:10:00,
2013-01-31 08:20:00,38.9,27.0,29.95,West,264,5.0,7.0,62,0.00,SCT,,0.01,WeatherDisplay:10.37,2013-01-31 13:20:00,
2013-01-31 08:30:00,39.2,26.9,29.95,NNW,344,3.0,14.0,61,0.00,SCT,,0.01,WeatherDisplay:10.37,2013-01-31 13:30:00,
2013-01-31 08:40:00,39.6,26.4,29.96,WNW,300,8.0,14.0,59,0.00,SCT,,0.01,WeatherDisplay:10.37,2013-01-31 13:40:00,
2013-01-31 08:50:00,40.0,26.4,29.97,NNW,338,7.0,12.0,58,0.00,SCT,,0.01,WeatherDisplay:10.37,2013-01-31 13:50:00,
2013-01-31 09:10:00,40.5,25.5,29.98,West,268,7.0,12.0,55,0.00,RA,,0.01,WeatherDisplay:10.37,2013-01-31 14:10:00,
2013-01-31 09:20:00,40.7,25.3,29.99,WNW,297,7.0,14.0,54,0.00,CLR,,0.01,WeatherDisplay:10.37,2013-01-31 14:20:00,
2013-01-31 09:30:00,41.4,25.9,29.99,NW,318,9.0,12.0,54,0.00,CLR,,0.01,WeatherDisplay:10.37,2013-01-31 14:30:00,
2013-01-31 09:40:00,42.1,26.2,29.99,NW,313,7.0,13.0,53,0.00,CLR,,0.01,WeatherDisplay:10.37,2013-01-31 14:40:00,
2013-01-31 09:50:00,42.3,26.8,30.00,WNW,299,7.0,7.0,54,0.00,CLR,,0.01,WeatherDisplay:10.37,2013-01-31 14:50:00,
2013-01-31 10:00:00,42.6,27.1,30.00,NW,319,9.0,10.0,54,0.00,CLR,,0.01,WeatherDisplay:10.37,2013-01-31 15:00:00,
2013-01-31 10:10:00,43.1,27.1,30.00,NW,319,7.0,10.0,53,0.00,SCT,,0.01,WeatherDisplay:10.37,2013-01-31 15:10:00,
2013-01-31 10:20:00,43.8,27.7,30.01,NW,313,2.0,8.0,53,0.00,SCT,,0.01,WeatherDisplay:10.37,2013-01-31 15:20:00,
2013-01-31 10:30:00,44.1,27.5,30.01,WSW,257,6.0,9.0,52,0.00,SCT,,0.01,WeatherDisplay:10.37,2013-01-31 15:30:00,
2013-01-31 10:40:00,44.7,28.1,30.01,WNW,302,6.0,8.0,52,0.00,SCT,,0.01,WeatherDisplay:10.37,2013-01-31 15:40:00,
2013-01-31 10:50:00,44.8,26.8,30.02,NW,323,6.0,8.0,49,0.00,SCT,,0.01,WeatherDisplay:10.37,2013-01-31 15:50:00,
2013-01-31 11:00:00,45.0,27.9,30.02,WNW,302,5.0,7.0,51,0.00,SCT,,0.01,WeatherDisplay:10.37,2013-01-31 16:00:00,
2013-01-31 11:10:00,45.0,26.5,30.03,WNW,287,10.0,15.0,48,0.00,SCT,,0.01,WeatherDisplay:10.37,2013-01-31 16:10:00,
2013-01-31 11:20:00,45.0,25.9,30.03,NW,312,10.0,15.0,47,0.00,SCT,,0.01,WeatherDisplay:10.37,2013-01-31 16:20:00,
2013-01-31 11:30:00,44.4,26.0,30.02,NW,305,5.0,10.0,48,0.00,SCT,,0.01,WeatherDisplay:10.37,2013-01-31 16:30:00,
2013-01-31 11:40:00,45.5,26.4,30.02,NW,320,6.0,12.0,47,0.00,SCT,,0.01,WeatherDisplay:10.37,2013-01-31 16:40:00,
2013-01-31 11:50:00,45.7,26.6,30.02,NW,304,5.0,10.0,47,0.00,SCT,,0.01,WeatherDisplay:10.37,2013-01-31 16:50:00,
2013-01-31 12:00:00,46.1,25.9,30.02,NNW,328,6.0,14.0,45,0.00,SCT,,0.01,WeatherDisplay:10.37,2013-01-31 17:00:00,
2013-01-31 12:10:00,46.0,25.9,30.02,North,355,9.0,10.0,45,0.00,SCT,,0.01,WeatherDisplay:10.37,2013-01-31 17:10:00,
2013-01-31 12:20:00,47.2,28.0,30.02,North,0,9.0,9.0,47,0.00,SCT,,0.01,WeatherDisplay:10.37,2013-01-31 17:20:00,
2013-01-31 12:30:00,48.0,28.7,30.02,North,0,9.0,9.0,47,0.00,SCT,,0.01,WeatherDisplay:10.37,2013-01-31 17:30:00,
2013-01-31 12:40:00,47.6,25.6,30.01,North,0,9.0,9.0,42,0.00,SCT,,0.01,WeatherDisplay:10.37,2013-01-31 17:40:00,
2013-01-31 12:50:00,46.9,27.1,30.01,North,0,9.0,9.0,46,0.00,SCT,,0.01,WeatherDisplay:10.37,2013-01-31 17:50:00,
2013-01-31 13:00:00,47.0,27.3,30.01,North,0,9.0,9.0,46,0.00,SCT,,0.01,WeatherDisplay:10.37,2013-01-31 18:00:00,
2013-01-31 13:10:00,47.8,28.0,30.01,North,0,9.0,9.0,46,0.00,SCT,,0.01,WeatherDisplay:10.37,2013-01-31 18:10:00,
2013-01-31 13:20:00,47.9,27.0,30.01,North,0,9.0,9.0,44,0.00,SCT,,0.01,WeatherDisplay:10.37,2013-01-31 18:20:00,
2013-01-31 13:30:00,47.6,25.6,30.01,North,0,9.0,9.0,42,0.00,SCT,,0.01,WeatherDisplay:10.37,2013-01-31 18:30:00,
2013-01-31 13:40:00,46.9,25.6,30.01,North,0,9.0,9.0,43,0.00,SCT,,0.01,WeatherDisplay:10.37,2013-01-31 18:40:00,
2013-01-31 13:50:00,46.2,25.4,30.02,North,0,9.0,9.0,44,0.00,SCT,,0.01,WeatherDisplay:10.37,2013-01-31 18:50:00,
2013-01-31 14:00:00,45.5,25.4,30.02,North,0,9.0,9.0,45,0.00,SCT,,0.01,WeatherDisplay:10.37,2013-01-31 19:00:00,
2013-01-31 14:10:00,46.7,25.4,30.02,North,0,9.0,9.0,43,0.00,SCT,,0.01,WeatherDisplay:10.37,2013-01-31 19:10:00,
2013-01-31 14:20:00,45.9,25.2,30.02,North,0,9.0,9.0,44,0.00,SCT,,0.01,WeatherDisplay:10.37,2013-01-31 19:20:00,
2013-01-31 14:30:00,44.8,24.7,30.02,North,0,9.0,9.0,45,0.00,SCT,,0.01,WeatherDisplay:10.37,2013-01-31 19:30:00,
2013-01-31 14:40:00,45.5,25.9,30.03,North,0,9.0,9.0,46,0.00,SCT,,0.01,WeatherDisplay:10.37,2013-01-31 19:40:00,
2013-01-31 14:50:00,45.9,24.0,30.03,North,0,9.0,9.0,42,0.00,SCT,,0.01,WeatherDisplay:10.37,2013-01-31 19:50:00,
2013-01-31 15:00:00,45.6,25.4,30.04,North,0,9.0,9.0,45,0.00,SCT,,0.01,WeatherDisplay:10.37,2013-01-31 20:00:00,
2013-01-31 15:10:00,45.1,24.4,30.04,North,0,9.0,9.0,44,0.00,SCT,,0.01,WeatherDisplay:10.37,2013-01-31 20:10:00,
2013-01-31 15:20:00,44.2,24.2,30.05,North,0,9.0,9.0,45,0.00,SCT,,0.01,WeatherDisplay:10.37,2013-01-31 20:20:00,
2013-01-31 15:30:00,44.2,25.3,30.05,North,0,9.0,9.0,47,0.00,SCT,,0.01,WeatherDisplay:10.37,2013-01-31 20:30:00,
2013-01-31 15:40:00,44.6,24.5,30.06,North,0,9.0,9.0,45,0.00,SCT,,0.01,WeatherDisplay:10.37,2013-01-31 20:40:00,
2013-01-31 15:50:00,44.4,24.3,30.06,North,0,9.0,9.0,45,0.00,SCT,,0.01,WeatherDisplay:10.37,2013-01-31 20:50:00,
2013-01-31 16:00:00,44.4,23.8,30.06,North,0,9.0,9.0,44,0.00,SCT,,0.01,WeatherDisplay:10.37,2013-01-31 21:00:00,
2013-01-31 16:10:00,44.6,23.5,30.06,North,0,9.0,9.0,43,0.00,SCT,,0.01,WeatherDisplay:10.37,2013-01-31 21:10:00,
2013-01-31 16:20:00,44.6,23.5,30.06,North,0,9.0,9.0,43,0.00,SCT,,0.01,WeatherDisplay:10.37,2013-01-31 21:20:00,
2013-01-31 16:30:00,44.1,24.1,30.07,NNW,346,5.0,9.0,45,0.00,SCT,,0.01,WeatherDisplay:10.37,2013-01-31 21:30:00,
2013-01-31 16:40:00,43.9,24.4,30.07,NW,307,6.0,6.0,46,0.00,SCT,,0.01,WeatherDisplay:10.37,2013-01-31 21:40:00,
2013-01-31 16:50:00,43.5,24.1,30.08,NW,315,6.0,6.0,46,0.00,SCT,,0.01,WeatherDisplay:10.37,2013-01-31 21:50:00,
2013-01-31 17:00:00,43.5,23.6,30.08,NW,315,6.0,6.0,45,0.00,SCT,,0.01,WeatherDisplay:10.37,2013-01-31 22:00:00,
2013-01-31 17:10:00,43.0,22.5,30.07,NW,315,6.0,6.0,44,0.00,FEW,,0.01,WeatherDisplay:10.37,2013-01-31 22:10:00,
2013-01-31 17:20:00,42.6,22.7,30.08,NW,315,6.0,6.0,45,0.00,FEW,,0.01,WeatherDisplay:10.37,2013-01-31 22:20:00,
2013-01-31 17:30:00,42.1,22.2,30.08,NW,315,6.0,6.0,45,0.00,FEW,,0.01,WeatherDisplay:10.37,2013-01-31 22:30:00,
2013-01-31 17:40:00,41.5,21.8,30.08,NW,315,6.0,6.0,45,0.00,FEW,,0.01,WeatherDisplay:10.37,2013-01-31 22:40:00,
2013-01-31 17:50:00,41.4,21.6,30.08,NW,315,6.0,6.0,45,0.00,FEW,,0.01,WeatherDisplay:10.37,2013-01-31 22:50:00,
2013-01-31 18:00:00,41.0,21.7,30.09,NNW,331,5.0,7.0,46,0.00,FEW,,0.01,WeatherDisplay:10.37,2013-01-31 23:00:00,
2013-01-31 18:10:00,40.6,21.4,30.09,NNW,327,8.0,8.0,46,0.00,FEW,,0.01,WeatherDisplay:10.37,2013-01-31 23:10:00,
2013-01-31 18:20:00,40.3,21.6,30.10,NW,323,7.0,9.0,47,0.00,FEW,,0.01,WeatherDisplay:10.37,2013-01-31 23:20:00,
2013-01-31 18:30:00,39.9,21.3,30.10,NW,313,6.0,8.0,47,0.00,FEW,,0.01,WeatherDisplay:10.37,2013-01-31 23:30:00,
2013-01-31 18:40:00,39.6,21.5,30.10,WNW,300,2.0,7.0,48,0.00,FEW,,0.01,WeatherDisplay:10.37,2013-01-31 23:40:00,
2013-01-31 18:50:00,39.0,21.5,30.10,WNW,285,5.0,5.0,49,0.00,FEW,,0.01,WeatherDisplay:10.37,2013-01-31 23:50:00,
2013-01-31 19:00:00,38.7,21.6,30.11,WNW,292,5.0,5.0,50,0.00,FEW,,0.01,WeatherDisplay:10.37,2013-02-01 00:00:00,
2013-01-31 19:10:00,38.1,21.1,30.11,WNW,292,5.0,5.0,50,0.00,CLR,,0.01,WeatherDisplay:10.37,2013-02-01 00:10:00,
2013-01-31 19:20:00,37.6,21.1,30.11,WNW,292,5.0,5.0,51,0.00,CLR,,0.01,WeatherDisplay:10.37,2013-02-01 00:20:00,
2013-01-31 19:30:00,37.0,21.0,30.11,WNW,292,5.0,5.0,52,0.00,CLR,,0.01,WeatherDisplay:10.37,2013-02-01 00:30:00,
2013-01-31 19:40:00,36.5,20.5,30.12,WNW,292,5.0,5.0,52,0.00,CLR,,0.01,WeatherDisplay:10.37,2013-02-01 00:40:00,
2013-01-31 19:50:00,36.1,20.6,30.12,WNW,292,5.0,5.0,53,0.00,CLR,,0.01,WeatherDisplay:10.37,2013-02-01 00:50:00,
2013-01-31 20:00:00,36.3,20.8,30.12,WNW,292,5.0,5.0,53,0.00,CLR,,0.01,WeatherDisplay:10.37,2013-02-01 01:00:00,
2013-01-31 20:10:00,36.3,21.2,30.12,WNW,284,1.0,5.0,54,0.00,CLR,,0.01,WeatherDisplay:10.37,2013-02-01 01:10:00,
2013-01-31 20:20:00,36.3,21.2,30.12,West,266,2.0,2.0,54,0.00,CLR,,0.01,WeatherDisplay:10.37,2013-02-01 01:20:00,
2013-01-31 20:30:00,36.1,21.1,30.11,West,260,1.0,2.0,54,0.00,CLR,,0.01,WeatherDisplay:10.37,2013-02-01 01:30:00,
2013-01-31 20:40:00,36.1,21.1,30.12,WNW,293,0.0,5.0,54,0.00,CLR,,0.01,WeatherDisplay:10.37,2013-02-01 01:40:00,
2013-01-31 20:50:00,36.3,21.2,30.11,West,263,2.0,2.0,54,0.00,CLR,,0.01,WeatherDisplay:10.37,2013-02-01 01:50:00,
2013-01-31 21:00:00,36.1,21.1,30.11,SW,230,0.0,2.0,54,0.00,CLR,,0.01,WeatherDisplay:10.37,2013-02-01 02:00:00,
2013-01-31 21:10:00,35.7,21.1,30.11,WSW,250,0.0,2.0,55,0.00,CLR,,0.01,WeatherDisplay:10.37,2013-02-01 02:10:00,
2013-01-31 21:20:00,35.1,20.6,30.11,WSW,257,0.0,0.0,55,0.00,CLR,,0.01,WeatherDisplay:10.37,2013-02-01 02:20:00,
2013-01-31 21:30:00,34.6,20.5,30.11,West,270,0.0,1.0,56,0.00,CLR,,0.01,WeatherDisplay:10.37,2013-02-01 02:30:00,
2013-01-31 21:40:00,34.5,20.4,30.11,WSW,239,0.0,2.0,56,0.00,CLR,,0.01,WeatherDisplay:10.37,2013-02-01 02:40:00,
2013-01-31 21:50:00,34.3,20.3,30.12,SW,224,0.0,0.0,56,0.00,CLR,,0.01,WeatherDisplay:10.37,2013-02-01 02:50:00,
2013-01-31 22:00:00,34.2,20.5,30.12,SW,236,1.0,2.0,57,0.00,CLR,,0.01,WeatherDisplay:10.37,2013-02-01 03:00:00,
2013-01-31 22:10:00,34.7,21.0,30.12,WNW,289,1.0,3.0,57,0.00,CLR,,0.01,WeatherDisplay:10.37,2013-02-01 03:10:00,
2013-01-31 22:20:00,35.1,21.8,30.12,SW,218,2.0,2.0,58,0.00,CLR,,0.01,WeatherDisplay:10.37,2013-02-01 03:20:00,
2013-01-31 22:30:00,35.2,21.5,30.12,WSW,252,1.0,3.0,57,0.00,CLR,,0.01,WeatherDisplay:10.37,2013-02-01 03:30:00,
2013-01-31 22:40:00,35.4,21.7,30.12,WSW,241,0.0,2.0,57,0.00,CLR,,0.01,WeatherDisplay:10.37,2013-02-01 03:40:00,
2013-01-31 22:50:00,35.2,21.5,30.12,WNW,287,1.0,2.0,57,0.00,CLR,,0.01,WeatherDisplay:10.37,2013-02-01 03:50:00,
2013-01-31 23:00:00,34.9,21.2,30.12,WSW,250,0.0,2.0,57,0.00,CLR,,0.01,WeatherDisplay:10.37,2013-02-01 04:00:00,
2013-01-31 23:10:00,34.7,21.0,30.11,WSW,239,0.0,2.0,57,0.00,CLR,,0.01,WeatherDisplay:10.37,2013-02-01 04:10:00,
2013-01-31 23:20:00,34.3,20.7,30.11,WSW,249,0.0,1.0,57,0.00,CLR,,0.01,WeatherDisplay:10.37,2013-02-01 04:20:00,
2013-01-31 23:30:00,34.2,20.9,30.11,SW,223,1.0,3.0,58,0.00,CLR,,0.01,WeatherDisplay:10.37,2013-02-01 04:30:00,
2013-01-31 23:40:00,33.8,21.0,30.11,SSW,209,1.0,3.0,59,0.00,CLR,,0.01,WeatherDisplay:10.37,2013-02-01 04:40:00,
2013-01-31 23:50:00,33.6,20.8,30.11,SW,216,2.0,3.0,59,0.00,CLR,,0.01,WeatherDisplay:10.37,2013-02-01 04:50:00,